Weather History for Chillicothe, MO

Change the Weather History Date:

Tuesday, October 16, 2012

  Actual Average (KIRK) Record (KIRK)
Temperature  
Mean Temperature 66 °F 53 °F  
Max Temperature 81 °F 64 °F 88 °F (1950)
Min Temperature 53 °F 42 °F 27 °F (1976)
Degree Days  
Heating Degree Days 0 12  
Month to date heating degree days 159  
Since 1 July heating degree days 266  
Cooling Degree Days 2 0  
Month to date cooling degree days 10  
Year to date cooling degree days 937  
Growing Degree Days 16 (Base 50)    
Moisture  
Dew Point 49 °F    
Average Humidity 56    
Maximum Humidity 80    
Minimum Humidity 36    
Precipitation  
Precipitation 0.00 in 0.12 in 1.35 in (1984)
Month to date precipitation 1.77  
Year to date precipitation 33.29  
Sea Level Pressure  
Sea Level Pressure 29.62 in    
Wind  
Wind Speed 8 mph (South)    
Max Wind Speed 17 mph    
Max Gust Speed 30 mph    
T = Trace of Precipitation, MM = Missing Value Source: NWS Daily Summary

Daily Weather History Graph

Daily Weather History Graph

Search for Another Location

Airport:

Trip Planner

Search our weather history database for the weather conditions in past years. The results will help you decide how hot, cold, wet, or windy it might be!

Date:

Astronomy

Oct. 16, 2012 Rise Set
Actual Time 7:26 AM CDT 6:32 PM CDT
Civil Twilight 6:58 AM CDT 6:59 PM CDT
Nautical Twilight 6:27 AM CDT 7:31 PM CDT
Astronomical Twilight 5:56 AM CDT 8:02 PM CDT
Moon 8:49 AM CDT 7:18 PM CDT
Length of Visible Light 12h 01m
Length of Day
11h 06m
New Moon, 2% of the Moon is Illuminated
Oct 16
New Moon
Oct 21
First Quarter
Oct 29
Full
Nov 6
Last Quarter
Nov 13
New

Hourly Weather History & Observations

Time (CDT) Temp. Dew Point Humidity Pressure Visibility Wind Dir Wind Speed Gust Speed Precip Events Conditions
12:52 AM 55.0 °F 45.0 °F 69% 29.85 in - SSE 4.6 mph - N/A   Unknown
1:52 AM 54.0 °F 45.0 °F 72% 29.82 in - SSE 3.5 mph - N/A   Unknown
2:52 AM 55.0 °F 45.0 °F 69% 29.79 in - SSE 3.5 mph - N/A   Unknown
3:52 AM 54.0 °F 45.0 °F 72% 29.75 in - SE 4.6 mph - N/A   Unknown
4:52 AM 55.0 °F 46.0 °F 72% 29.73 in - SE 5.8 mph - N/A   Unknown
5:52 AM 54.0 °F 46.9 °F 77% 29.71 in - SE 4.6 mph - N/A   Unknown
6:52 AM 53.1 °F 46.9 °F 80% 29.71 in - Calm Calm - N/A   Unknown
7:52 AM 59.0 °F 48.9 °F 69% 29.69 in - South 8.1 mph - N/A   Unknown
8:52 AM 61.0 °F 50.0 °F 67% 29.67 in - South 11.5 mph - N/A   Unknown
9:52 AM 64.9 °F 51.1 °F 61% 29.65 in - South 11.5 mph - N/A   Unknown
10:52 AM 71.1 °F 51.1 °F 49% 29.63 in - SSW 12.7 mph 20.7 mph N/A   Unknown
11:52 AM 73.9 °F 51.1 °F 45% 29.62 in - SSW 12.7 mph 20.7 mph N/A   Unknown
12:52 PM 78.1 °F 51.1 °F 39% 29.59 in - SW 15.0 mph 25.3 mph N/A   Unknown
1:52 PM 79.0 °F 50.0 °F 36% 29.56 in - SW 17.3 mph 29.9 mph N/A   Unknown
2:52 PM 80.1 °F 51.1 °F 36% 29.52 in - SSW 13.8 mph 26.5 mph N/A   Unknown
3:52 PM 80.1 °F 52.0 °F 38% 29.51 in - SSW 12.7 mph 24.2 mph N/A   Unknown
4:52 PM 79.0 °F 51.1 °F 38% 29.50 in - SSW 15.0 mph 25.3 mph N/A   Unknown
5:52 PM 77.0 °F 51.1 °F 40% 29.50 in - SSW 15.0 mph 24.2 mph N/A   Unknown
6:52 PM 73.9 °F 51.1 °F 45% 29.50 in - South 8.1 mph - N/A   Unknown
7:52 PM 71.1 °F 51.1 °F 49% 29.51 in - South 9.2 mph - N/A   Unknown
8:52 PM 69.1 °F 50.0 °F 51% 29.52 in - South 8.1 mph - N/A   Unknown
9:52 PM 66.9 °F 48.9 °F 52% 29.52 in - South 8.1 mph - N/A   Unknown
10:52 PM 66.0 °F 48.9 °F 54% 29.52 in - South 8.1 mph - N/A   Unknown
11:52 PM 64.9 °F 48.0 °F 54% 29.50 in - South 9.2 mph - N/A   Unknown